�N����,����,�~����,�C��,���x,�C��,����,���ϕ���,�ő�u�ԕ���,�ő厞����,���˗�,�I�_���x,�n�����x,�ő啗���N��,DTYPE
"16/04/13","00:10",0.0,13.8,75.6,1013.5,78.7,0.5,1.0,116.5,0.00,9.6,13.7,"00:02:56",1
"16/04/13","00:20",0.0,13.9,75.7,1013.3,72.1,0.5,1.2,110.3,0.00,9.7,13.7,"00:13:04",1
"16/04/13","00:30",0.0,13.9,75.5,1013.8,98.9,0.7,1.9,119.3,0.00,9.7,13.7,"00:27:12",1
"16/04/13","00:40",0.0,14.0,75.3,1013.3,82.7,0.6,1.6,107.2,0.00,9.7,13.7,"00:36:32",1
"16/04/13","00:50",0.0,14.0,75.4,1013.0,73.7,0.6,1.1,105.6,0.00,9.8,13.6,"00:41:20",1
"16/04/13","01:00",0.0,14.0,75.6,1013.3,92.5,0.8,2.1,82.4,0.00,9.8,13.8,"00:51:20",1
"16/04/13","01:10",0.0,13.9,76.3,1013.0,123.2,0.8,2.0,128.1,0.00,9.8,13.4,"01:02:32",1
"16/04/13","01:20",0.0,14.0,76.4,1013.0,104.5,0.7,2.0,133.5,0.00,10.0,13.7,"01:11:12",1
"16/04/13","01:30",0.0,13.9,76.6,1012.8,109.5,0.7,1.7,100.6,0.00,9.9,13.6,"01:29:12",1
"16/04/13","01:40",0.0,14.0,76.4,1013.3,78.1,1.0,2.4,92.7,0.00,10.0,13.6,"01:35:52",1
"16/04/13","01:50",0.0,14.0,76.6,1012.8,71.7,0.6,1.8,30.5,0.00,10.0,13.7,"01:46:48",1
"16/04/13","02:00",0.0,14.1,76.6,1012.8,94.7,0.8,2.0,103.2,0.00,10.1,13.7,"01:52:08",1
"16/04/13","02:10",0.0,13.9,77.0,1012.6,86.7,0.6,1.8,136.7,0.00,10.0,13.6,"02:04:00",1
"16/04/13","02:20",0.0,13.9,77.1,1012.3,75.5,0.5,1.2,103.6,0.00,10.0,13.6,"02:10:56",1
"16/04/13","02:30",0.0,13.9,77.3,1012.3,106.3,1.1,2.2,103.2,0.00,10.0,13.3,"02:22:40",1
"16/04/13","02:40",0.0,13.9,77.2,1011.6,124.4,0.8,2.0,356.5,0.00,10.0,13.7,"02:33:20",1
"16/04/13","02:50",0.0,13.9,77.4,1012.1,125.6,1.0,2.1,122.4,0.00,10.1,13.4,"02:42:16",1
"16/04/13","03:00",0.0,13.8,77.9,1012.1,103.2,0.6,1.3,117.4,0.00,10.1,13.3,"02:50:08",1
"16/04/13","03:10",0.0,13.8,77.7,1011.6,131.1,0.5,1.3,113.8,0.00,10.0,13.4,"03:02:16",1
"16/04/13","03:20",0.0,13.8,78.2,1011.9,125.7,0.8,2.1,120.1,0.00,10.1,13.4,"03:18:40",1
"16/04/13","03:30",0.0,13.9,77.9,1011.6,144.4,0.8,2.1,118.5,0.00,10.2,13.5,"03:26:24",1
"16/04/13","03:40",0.0,13.9,77.6,1011.9,121.0,1.0,2.0,114.8,0.00,10.1,13.4,"03:31:44",1
"16/04/13","03:50",0.0,13.9,77.6,1011.4,116.5,1.0,2.0,123.1,0.00,10.1,13.5,"03:47:44",1
"16/04/13","04:00",0.0,13.8,77.9,1011.6,124.0,0.7,1.9,119.3,0.00,10.1,13.4,"03:51:12",1
"16/04/13","04:10",0.0,13.9,77.9,1011.4,23.3,0.5,1.3,123.5,0.00,10.2,13.5,"04:03:36",1
"16/04/13","04:20",0.0,13.7,78.4,1011.4,293.7,0.6,1.3,323.9,0.00,10.1,13.5,"04:19:12",1
"16/04/13","04:30",0.0,13.6,79.0,1011.2,323.2,1.2,1.7,320.1,0.00,10.1,13.4,"04:29:20",1
"16/04/13","04:40",0.0,13.3,80.7,1011.4,324.9,1.3,1.8,328.7,0.00,10.1,13.5,"04:30:16",1
"16/04/13","04:50",0.0,13.1,81.9,1010.9,331.0,1.5,2.0,323.0,0.00,10.1,13.4,"04:42:56",1
"16/04/13","05:00",0.0,13.1,82.4,1010.9,340.0,1.2,1.8,341.8,0.00,10.2,13.4,"04:52:32",1
"16/04/13","05:10",0.0,13.1,82.4,1010.7,313.8,0.8,1.4,316.3,0.00,10.2,13.3,"05:07:12",1
"16/04/13","05:20",0.0,13.2,82.5,1010.7,314.8,0.5,1.3,307.1,0.00,10.3,13.3,"05:16:40",1
"16/04/13","05:30",0.0,13.4,81.7,1010.7,359.4,0.3,1.6,351.0,0.00,10.4,13.3,"05:23:52",1
"16/04/13","05:40",0.0,13.6,80.5,1010.7,38.3,0.5,1.0,112.7,0.00,10.4,13.4,"05:36:56",1
"16/04/13","05:50",0.0,13.7,79.9,1010.4,6.5,0.6,1.4,329.0,0.00,10.3,13.4,"05:48:32",1
"16/04/13","06:00",0.0,13.8,80.0,1010.7,15.9,0.6,1.6,24.9,0.00,10.5,13.4,"05:51:36",1
"16/04/13","06:10",0.0,13.8,79.9,1010.9,323.9,0.6,1.4,316.8,0.00,10.4,13.4,"06:09:04",1
"16/04/13","06:20",0.0,13.8,80.2,1010.7,312.0,0.5,1.0,318.4,0.00,10.5,13.4,"06:15:44",1
"16/04/13","06:30",0.0,13.9,80.4,1010.7,326.7,0.2,0.9,304.5,0.00,10.6,13.3,"06:25:52",1
"16/04/13","06:40",0.0,14.0,80.5,1010.2,318.3,0.2,0.6,319.2,0.01,10.7,13.3,"06:37:04",1
"16/04/13","06:50",0.0,14.1,80.0,1010.2,297.4,0.6,1.2,309.1,0.01,10.7,13.4,"06:46:32",1
"16/04/13","07:00",0.0,14.4,79.9,1010.2,306.5,1.0,1.9,333.6,0.02,11.0,13.3,"06:55:44",1
"16/04/13","07:10",0.0,14.5,78.6,1010.0,308.2,1.1,2.2,324.9,0.02,10.9,13.4,"07:00:24",1
"16/04/13","07:20",0.0,14.6,78.5,1010.2,298.4,0.8,1.4,299.3,0.01,10.9,13.4,"07:18:24",1
"16/04/13","07:30",0.0,14.7,79.9,1010.4,294.4,1.1,1.4,308.5,0.00,11.3,13.3,"07:27:04",1
"16/04/13","07:40",0.0,14.7,79.4,1010.4,301.8,1.1,1.3,309.5,0.01,11.2,13.5,"07:30:48",1
"16/04/13","07:50",0.0,14.9,78.7,1010.4,281.4,0.7,1.4,312.0,0.03,11.3,13.5,"07:44:56",1
"16/04/13","08:00",0.0,15.0,78.0,1010.4,263.0,0.6,1.1,284.5,0.02,11.2,13.4,"07:50:16",1
"16/04/13","08:10",0.0,15.1,77.9,1010.7,152.4,0.7,1.9,89.8,0.02,11.3,13.4,"08:09:12",1
"16/04/13","08:20",0.0,15.2,77.9,1010.2,121.0,0.8,1.9,115.1,0.03,11.4,13.6,"08:15:52",1
"16/04/13","08:30",0.0,15.4,76.7,1010.4,114.3,0.6,1.7,124.9,0.04,11.4,13.5,"08:25:28",1
"16/04/13","08:40",0.0,15.6,77.2,1010.2,336.2,1.1,2.4,121.1,0.05,11.7,13.8,"08:30:56",1
"16/04/13","08:50",0.0,16.0,74.7,1010.4,223.1,0.6,1.7,322.8,0.09,11.6,13.6,"08:40:32",1
"16/04/13","09:00",0.0,16.1,74.0,1010.2,111.8,1.1,3.3,130.9,0.07,11.5,13.8,"08:56:40",1
"16/04/13","09:10",0.0,16.3,73.6,1010.0,95.4,0.6,1.2,136.2,0.10,11.6,13.9,"09:02:00",1
"16/04/13","09:20",0.0,16.8,71.3,1010.2,344.8,1.0,2.6,346.6,0.10,11.6,14.0,"09:11:36",1
"16/04/13","09:30",0.0,16.7,71.3,1010.0,349.8,0.6,2.1,354.8,0.06,11.5,13.9,"09:26:56",1
"16/04/13","09:40",0.0,16.7,72.3,1010.0,316.0,0.6,1.4,313.4,0.06,11.7,13.9,"09:32:56",1
"16/04/13","09:50",0.0,17.1,72.2,1010.0,106.8,0.8,1.8,155.0,0.18,12.1,14.0,"09:48:32",1
"16/04/13","10:00",0.0,17.4,69.6,1010.0,1.0,1.0,2.4,337.9,0.20,11.8,14.1,"09:55:12",1
"16/04/13","10:10",0.0,17.4,71.0,1009.5,228.7,0.5,1.2,100.9,0.12,12.1,14.2,"10:01:04",1
"16/04/13","10:20",0.0,17.4,70.4,1009.7,53.1,0.6,1.4,286.3,0.06,12.0,14.0,"10:15:04",1
"16/04/13","10:30",0.0,18.0,69.8,1009.3,110.6,0.6,1.4,115.9,0.19,12.4,14.3,"10:22:48",1
"16/04/13","10:40",0.0,19.3,64.8,1008.8,113.7,1.5,3.2,97.4,0.57,12.6,14.7,"10:38:48",1
"16/04/13","10:50",0.0,19.6,63.7,1008.6,127.2,2.0,5.1,121.0,0.54,12.6,14.8,"10:48:16",1
"16/04/13","11:00",0.0,20.0,65.2,1008.3,100.0,1.8,4.8,123.8,0.53,13.3,15.0,"10:51:12",1
"16/04/13","11:10",0.0,20.3,60.4,1008.1,91.6,2.1,4.2,105.5,0.64,12.4,15.1,"11:02:32",1
"16/04/13","11:20",0.0,19.4,64.2,1007.8,111.9,1.6,5.9,113.8,0.39,12.5,15.5,"11:15:20",1
"16/04/13","11:30",0.0,19.4,65.8,1007.6,111.6,1.6,3.7,116.9,0.21,12.9,15.5,"11:21:52",1
"16/04/13","11:40",0.0,19.7,65.3,1007.4,105.6,1.3,2.8,155.2,0.23,13.1,15.9,"11:38:48",1
"16/04/13","11:50",0.0,19.6,64.6,1007.1,104.4,1.2,2.6,112.4,0.18,12.8,16.0,"11:42:40",1
"16/04/13","12:00",0.0,19.9,63.0,1007.1,98.0,1.5,3.3,120.1,0.20,12.7,16.2,"11:55:28",1
"16/04/13","12:10",0.0,20.8,63.3,1006.9,109.5,1.1,3.1,127.8,0.40,13.6,16.3,"12:08:32",1
"16/04/13","12:20",0.0,20.9,61.9,1006.4,113.0,2.2,5.2,138.4,0.42,13.4,16.5,"12:19:12",1
"16/04/13","12:30",0.0,20.4,62.2,1006.4,94.2,2.0,4.5,109.1,0.21,13.0,16.6,"12:23:20",1
"16/04/13","12:40",0.0,20.2,62.5,1006.4,78.8,1.8,4.5,113.7,0.19,12.9,16.6,"12:36:56",1
"16/04/13","12:50",0.0,19.7,67.7,1006.2,105.9,2.5,5.1,118.4,0.13,13.6,16.5,"12:44:00",1
"16/04/13","13:00",0.0,19.3,68.8,1006.0,99.1,2.3,4.7,114.4,0.12,13.5,16.4,"12:55:04",1
"16/04/13","13:10",0.0,19.4,68.9,1006.0,95.9,2.3,4.5,96.9,0.09,13.6,16.7,"13:05:36",1
"16/04/13","13:20",0.0,19.6,67.4,1005.7,88.4,2.2,5.6,100.4,0.11,13.4,16.4,"13:13:52",1
"16/04/13","13:30",0.0,19.6,66.9,1005.7,99.6,2.5,4.9,113.3,0.12,13.3,16.6,"13:28:24",1
"16/04/13","13:40",0.0,19.2,69.2,1005.5,93.2,2.3,5.5,98.5,0.06,13.5,16.4,"13:34:40",1
"16/04/13","13:50",0.0,19.2,68.2,1005.5,87.8,2.2,6.0,117.2,0.07,13.2,16.5,"13:41:44",1
"16/04/13","14:00",0.0,19.2,69.3,1005.7,112.2,2.7,6.2,114.0,0.03,13.5,16.6,"13:56:24",1
"16/04/13","14:10",0.0,18.8,73.7,1005.2,122.9,3.0,6.3,121.6,0.04,14.0,16.3,"14:06:16",1
"16/04/13","14:20",0.0,18.3,77.1,1005.5,113.3,2.3,7.3,125.3,0.02,14.3,16.4,"14:10:24",1
"16/04/13","14:30",0.0,17.9,78.7,1005.5,94.6,1.6,3.2,114.5,0.02,14.2,16.1,"14:23:04",1
"16/04/13","14:40",0.0,17.7,78.5,1005.2,100.6,2.1,4.3,105.3,0.02,14.0,16.3,"14:34:32",1
"16/04/13","14:50",0.2,17.5,80.3,1005.5,86.0,1.8,4.3,91.2,0.02,14.1,16.3,"14:44:00",1
"16/04/13","15:00",0.0,17.2,82.3,1005.2,99.4,2.0,3.7,104.6,0.03,14.2,16.2,"14:51:36",1
"16/04/13","15:10",0.0,17.0,82.4,1005.2,71.4,1.2,3.3,117.4,0.02,14.0,15.8,"15:04:56",1
"16/04/13","15:20",0.0,17.1,82.7,1004.8,359.4,1.1,2.5,36.0,0.07,14.2,16.2,"15:10:08",1
"16/04/13","15:30",0.0,17.1,81.7,1005.0,14.2,1.0,2.0,56.7,0.05,14.0,16.0,"15:20:56",1
"16/04/13","15:40",0.0,17.0,81.5,1005.0,61.1,1.0,4.0,96.3,0.02,13.9,16.0,"15:35:04",1
"16/04/13","15:50",0.0,17.0,81.0,1005.2,70.5,1.1,2.6,100.1,0.01,13.8,15.9,"15:47:04",1
"16/04/13","16:00",0.0,17.0,80.8,1005.0,86.8,1.2,2.8,105.4,0.01,13.7,15.8,"15:50:02",1
"16/04/13","16:10",0.0,16.9,81.1,1004.8,103.3,1.8,4.4,115.9,0.01,13.7,15.8,"16:01:04",1
"16/04/13","16:20",0.0,16.7,82.5,1004.8,105.2,1.7,3.7,119.9,0.01,13.7,15.8,"16:10:40",1
"16/04/13","16:30",0.0,16.5,83.1,1005.5,79.1,1.3,3.1,66.6,0.00,13.7,15.8,"16:23:44",1
"16/04/13","16:40",0.0,16.3,84.0,1004.8,90.6,1.6,4.4,108.5,0.00,13.6,15.6,"16:35:04",1
"16/04/13","16:50",0.0,16.3,83.4,1004.8,97.2,1.8,4.2,100.9,0.01,13.5,15.7,"16:47:36",1
"16/04/13","17:00",0.0,16.2,84.0,1004.8,92.1,1.2,3.2,114.4,0.00,13.5,15.6,"16:56:00",1
"16/04/13","17:10",0.0,16.1,84.9,1004.5,88.3,1.0,2.4,95.4,0.00,13.6,15.6,"17:00:16",1
"16/04/13","17:20",0.0,16.0,84.5,1005.0,106.9,1.7,4.5,112.3,0.00,13.4,15.6,"17:12:16",1
"16/04/13","17:30",0.0,16.1,84.4,1004.8,115.6,1.6,3.1,100.4,0.00,13.5,15.6,"17:20:08",1
"16/04/13","17:40",0.2,16.1,84.8,1004.5,121.1,1.2,2.7,110.5,0.00,13.6,15.5,"17:31:04",1
"16/04/13","17:50",0.0,15.9,85.2,1004.5,88.7,1.5,3.6,104.8,0.00,13.5,15.4,"17:48:40",1
"16/04/13","18:00",0.0,15.7,85.7,1004.3,93.8,1.0,2.7,115.7,0.00,13.4,15.2,"17:53:20",1
"16/04/13","18:10",0.0,15.6,86.3,1004.5,37.5,0.7,2.4,105.1,0.00,13.4,15.2,"18:05:36",1
"16/04/13","18:20",0.0,15.7,86.2,1004.3,81.2,0.8,2.2,79.1,0.00,13.4,15.4,"18:15:44",1
"16/04/13","18:30",0.0,15.7,85.7,1004.3,82.7,1.1,2.7,116.6,0.00,13.4,15.2,"18:22:40",1
"16/04/13","18:40",0.4,15.6,86.0,1004.5,112.2,1.3,3.2,117.9,0.00,13.3,15.2,"18:39:44",1
"16/04/13","18:50",0.0,15.5,87.2,1004.3,98.5,1.5,3.2,119.9,0.00,13.4,15.2,"18:40:24",1
"16/04/13","19:00",0.2,15.3,87.9,1004.3,321.9,0.8,1.6,342.3,0.00,13.3,14.9,"18:55:36",1
"16/04/13","19:10",0.0,15.2,88.2,1004.3,305.1,1.0,1.8,332.6,0.00,13.3,15.1,"19:03:20",1
"16/04/13","19:20",0.0,15.2,88.4,1004.1,341.4,0.6,1.4,332.5,0.00,13.3,15.0,"19:12:00",1
"16/04/13","19:30",0.0,15.3,89.0,1003.8,352.0,1.0,1.9,321.1,0.00,13.5,15.1,"19:26:56",1
"16/04/13","19:40",0.0,15.1,89.7,1003.8,330.3,1.0,1.6,331.8,0.00,13.5,15.0,"19:34:24",1
"16/04/13","19:50",0.2,15.1,89.6,1003.6,49.8,0.6,2.0,33.8,0.00,13.4,14.8,"19:48:48",1
"16/04/13","20:00",0.0,15.2,88.9,1003.8,77.6,0.7,1.7,117.8,0.00,13.4,15.1,"19:57:36",1
"16/04/13","20:10",0.0,15.3,89.1,1004.1,343.5,0.3,1.9,222.2,0.00,13.6,14.9,"20:09:04",1
"16/04/13","20:20",0.2,15.3,89.9,1004.3,300.7,1.2,2.2,315.4,0.00,13.7,15.1,"20:18:18",1
"16/04/13","20:30",1.4,15.0,91.3,1004.8,320.2,2.5,3.3,325.4,0.00,13.6,14.7,"20:26:56",1
"16/04/13","20:40",4.4,14.8,92.1,1004.8,337.4,1.7,3.3,335.4,0.00,13.6,15.1,"20:32:00",1
"16/04/13","20:50",3.4,14.7,92.8,1004.3,337.1,1.1,2.2,304.2,0.00,13.6,14.9,"20:40:24",1
"16/04/13","21:00",1.6,14.7,93.6,1004.5,276.3,1.1,1.7,268.0,0.00,13.7,15.0,"20:50:08",1
"16/04/13","21:10",0.8,14.6,94.0,1004.1,54.7,0.6,1.3,94.0,0.00,13.7,14.6,"21:07:20",1
"16/04/13","21:20",0.6,14.7,94.2,1004.3,290.9,0.8,1.4,265.1,0.00,13.8,14.9,"21:18:56",1
"16/04/13","21:30",1.0,14.7,94.4,1003.8,268.0,0.6,1.2,235.4,0.00,13.9,14.8,"21:20:24",1
"16/04/13","21:40",0.6,14.7,94.7,1003.6,252.0,0.5,1.0,230.2,0.00,13.9,14.9,"21:34:48",1
"16/04/13","21:50",0.6,14.6,94.9,1003.6,318.9,0.8,1.2,301.1,0.00,13.8,14.7,"21:45:28",1
"16/04/13","22:00",1.4,14.7,95.0,1003.4,357.1,0.6,0.9,306.2,0.00,13.9,14.9,"21:58:48",1
"16/04/13","22:10",0.8,14.6,95.2,1003.4,337.3,0.5,0.8,288.9,0.00,13.9,14.7,"22:00:40",1
"16/04/13","22:20",0.8,14.6,95.3,1003.1,359.2,0.8,1.3,351.5,0.00,13.9,14.4,"22:18:24",1
"16/04/13","22:30",0.8,14.5,95.4,1003.1,345.5,0.8,1.6,343.8,0.00,13.8,14.7,"22:22:32",1
"16/04/13","22:40",1.2,14.6,95.7,1003.4,302.4,0.8,1.7,322.8,0.00,14.0,14.5,"22:30:02",1
"16/04/13","22:50",4.0,14.7,95.8,1003.8,321.5,2.6,4.3,331.9,0.00,14.1,14.3,"22:45:36",1
"16/04/13","23:00",3.6,14.8,95.7,1003.4,317.4,1.6,3.3,338.4,0.00,14.2,14.4,"22:50:16",1
"16/04/13","23:10",1.6,14.7,95.8,1003.1,247.2,0.7,1.6,235.9,0.00,14.1,14.6,"23:09:44",1
"16/04/13","23:20",1.2,14.8,95.7,1003.4,243.7,0.8,1.6,235.6,0.00,14.2,14.5,"23:11:12",1
"16/04/13","23:30",0.6,14.8,95.6,1003.1,176.4,1.1,2.2,167.1,0.00,14.1,14.7,"23:22:16",1
"16/04/13","23:40",0.4,14.8,95.5,1002.9,2.5,0.3,0.8,338.7,0.00,14.1,14.6,"23:36:40",1
"16/04/13","23:50",0.2,14.7,95.6,1002.9,266.0,0.8,2.2,308.8,0.00,14.0,14.5,"23:48:08",1
"16/04/13","24:00",0.4,14.7,95.6,1003.1,298.1,0.7,1.2,255.5,0.00,14.0,14.7,"23:54:40",1
